Flag for Canada Weather past 2 weeks in Kelowna, British Columbia, Canada

Now
43 °F

Clear.


Feels Like: 43 °F
Forecast: 38 / 57 °F
Wind: No wind

Location: Kelowna Airport

Current Time: Oct 2, 2014 at 6:31:06 AM

Latest Report: Oct 2, 2014 at 6:00 AM


Visibility: 9 mi

Pressure: 30.25 "Hg

Humidity: 66%

Dew point: 32 °F

Location of KelownaLocation

Historic Weather in Kelowna — Graph

°F

Kelowna temperature yesterday

Maximum temperature yesterday: 63 °F (at 3:00 PM)
Minimum temperature yesterday: 41 °F (at 1:00 AM)
Average temperature yesterday: 53 °F

Past Weeks' High & Low Weather Summary

 TemperatureHumidityPressure
High81 °F (Sep 21, 4:00 PM)100% (Sep 26, 3:00 AM)30.26 "Hg (Sep 26, 3:00 AM)
Low39 °F (Sep 28, 7:01 AM)30% (Sep 21, 3:00 PM)29.67 "Hg (Sep 18, 2:00 AM)
Average58 °F75%29.93 "Hg
* Reported Sep 17 5:00 AM — Oct 2 5:00 AM, Kelowna, Weather by CustomWeather, © 2014

Note: Actual official high and low records may vary slightly from our data, if they occured in-between our weather recording intervals... More about our weather records

Advertising

Kelowna weather history for previous 24 hours

 ConditionsComfort  
Time TempWeatherWind HumidityBarometerVisibility
5:00 AM
Oct 2
45 °FClear.2 mph66%30.22 "Hg9 mi
4:00 AM46 °FPassing clouds.No wind66%30.20 "Hg9 mi
3:00 AM48 °FPassing clouds.5 mph66%30.18 "Hg9 mi
2:00 AM46 °FPassing clouds.6 mph76%30.16 "Hg9 mi
1:00 AM50 °FOvercast.No wind67%30.14 "Hg9 mi
12:00 AM54 °FMostly cloudy.3 mph58%30.12 "Hg9 mi
11:00 PM
Oct 1
55 °FMostly cloudy.6 mph51%30.09 "Hg9 mi
10:00 PM55 °FMostly cloudy.8 mph47%30.06 "Hg9 mi
9:00 PM57 °FMostly cloudy.3 mph41%30.03 "Hg9 mi
8:00 PM57 °FOvercast.13 mph41%30.01 "Hg9 mi
7:00 PM59 °FSunny.18 mph39%29.99 "Hg9 mi
6:00 PM61 °FSunny.25 mph36%29.97 "Hg9 mi
5:00 PM63 °FSunny.17 mph34%29.97 "Hg9 mi
4:00 PM63 °FPartly sunny.13 mph39%29.97 "Hg9 mi
3:00 PM63 °FPartly sunny.10 mph42%29.99 "Hg9 mi
2:00 PM61 °FOvercast.9 mph45%30.01 "Hg9 mi
1:00 PM61 °FPartly sunny.13 mph45%30.03 "Hg9 mi
12:00 PM59 °FPartly sunny.13 mph51%30.06 "Hg9 mi
11:00 AM59 °FSunny.10 mph55%30.08 "Hg9 mi
10:00 AM55 °FSunny.6 mph72%30.09 "Hg9 mi
9:00 AM50 °FSunny.5 mph76%30.10 "Hg9 mi
8:00 AM45 °FPartly sunny.3 mph93%30.11 "Hg9 mi
7:00 AM43 °FOvercast.2 mph87%30.11 "Hg9 mi
6:00 AM46 °FMostly cloudy.5 mph82%30.09 "Hg9 mi
Weather by CustomWeather, © 2014

See weather overviewHow to use our weather pages